Location: ??????????
(48.4699°N, 37.9573°E)
Time: 03:14:55
(UTC+00:00)

Cosmos 1898 Rocket - Pass Details

Date: 20 January 2021
Orbit: 754 x 783 km, 74.0° (Epoch: 24 February)

Event Time Altitude Azimuth Distance (km) Brightness Sun altitude
Rises 16:37:09 0° 190° (S) 3,241 6.9 -24.3°
Reaches altitude 10° 16:39:33 10° 186° (S) 2,314 6.1 -24.7°
Enters shadow 16:43:20 45° 162° (SSE) 1,051 4.0 -25.3°
